Location: Unspecified
(48.8656°N, 0.0000°E)
Time: 16:18:14
(UTC+00:00)

Altair - Pass Details

Date: 22 June 2019
Orbit: 1501 x 1683 km, 47.2° (Epoch: 21 August)

Event Time Altitude Azimuth Distance (km) Brightness Sun altitude
Rises 03:07:53 0° 290° (WNW) 4,878 9.9 -6.7°
Reaches altitude 10° 03:11:41 10° 278° (W) 3,910 9.3 -6.2°
Maximum altitude 03:19:19 26° 228° (SW) 2,882 8.4 -5.4°
Drops below altitude 10° 03:27:03 10° 178° (S) 3,937 9.3 -4.5°
Sets 03:30:55 0° 166° (SSE) 4,917 9.9 -4.0°
